Debrecen, Hungary

9:45 AM CET on December 17, 2017 (GMT +0100)
Debrecen

Weather History for LHDC - March, 2013

Change the Weather History Date:

Tuesday, March 5, 2013

  Actual Average Record
Temperature  
Mean Temperature 36 °F -  
Max Temperature 51 °F 53 °F - ()
Min Temperature 21 °F 34 °F - ()
Degree Days  
Heating Degree Days 29    
Moisture  
Dew Point 20 °F    
Average Humidity 48    
Maximum Humidity 80    
Minimum Humidity 18    
Precipitation  
Precipitation 0.00 in 0.05 in - ()
Sea Level Pressure  
Sea Level Pressure 30.35 in    
Wind  
Wind Speed 4 mph ()    
Max Wind Speed 10 mph    
Max Gust Speed -    
Visibility 16.0 miles    
Events      
T = Trace of Precipitation, MM = Missing Value Source: Averaged Metar Reports

Daily Weather History Graph

Daily Weather History Graph

Search for Another Location

Airport or City:

Trip Planner

Search our weather history database for the weather conditions in past years. The results will help you decide how hot, cold, wet, or windy it might be!

Date:

Astronomy

Mar. 05, 2013 Rise Set
Actual Time 6:06 AM CET 5:24 PM CET
Civil Twilight 5:35 AM CET 5:55 PM CET
Nautical Twilight 5:00 AM CET 6:30 PM CET
Astronomical Twilight 4:24 AM CET 7:06 PM CET
Moon 1:18 AM CET (3/5) 10:26 AM CET (3/5)
Length of Visible Light 12h 19m
Length of Day
11h 18m
Last Quarter, 44% of the Moon is Illuminated
Mar 5
Last Quarter
Mar 11
New
Mar 19
First Quarter
Mar 27
Full
Apr 3
Last Quarter

Hourly Weather History & Observations

Time (CET) Temp. Windchill Dew Point Humidity Pressure Visibility Wind Dir Wind Speed Gust Speed Precip Events Conditions
1:00 AM 25 °F - 19 °F 69% 30.40 in - East 2.2 mph - -  
5:15 AM 24.8 °F - 17.6 °F 74% 30.36 in - NNE 1.2 mph - N/A   Clear
5:45 AM 23.0 °F - 17.6 °F 80% 30.36 in - ENE 1.2 mph - N/A   Clear
6:00 AM - - - N/A% - - Variable 2.3 mph - N/A   Clear
6:15 AM 21.2 °F - 15.8 °F 80% 30.36 in - ENE 2.3 mph - N/A   Clear
6:45 AM 24.8 °F 20.5 °F 19.4 °F 80% 30.39 in - North 3.5 mph - N/A   Clear
7:00 AM 24 °F - 18 °F 71% 30.40 in 16 mi North 4.5 mph - -   Partly Cloudy
7:15 AM 28.4 °F - 21.2 °F 74% 30.39 in - NE 2.3 mph - N/A   Clear
7:45 AM 30.2 °F - 23.0 °F 75% 30.39 in - SE 1.2 mph - N/A   Clear
8:15 AM 33.8 °F - 21.2 °F 60% 30.39 in - East 2.3 mph - N/A   Clear
8:45 AM 37.4 °F 34.9 °F 23.0 °F 56% 30.39 in - East 3.5 mph - N/A   Clear
9:00 AM - - - N/A% - - Variable 2.3 mph - N/A   Clear
9:15 AM 39.2 °F 37.0 °F 21.2 °F 49% 30.39 in - ESE 3.5 mph - N/A   Clear
9:45 AM 41.0 °F 38.0 °F 19.4 °F 42% 30.39 in - South 4.6 mph - N/A   Clear
10:45 AM 44.6 °F 43.1 °F 17.6 °F 34% 30.39 in - SSE 3.5 mph - N/A   Clear
11:45 AM 48.2 °F - 17.6 °F 30% 30.36 in - South 9.2 mph - N/A   Clear
12:00 PM - - - N/A% - - South 8.1 mph - N/A   Clear
12:15 PM 48.2 °F - 17.6 °F 30% 30.36 in - South 9.2 mph - N/A   Clear
12:45 PM 48.2 °F - 19.4 °F 32% 30.33 in - SSE 9.2 mph - N/A   Clear
1:00 PM 49 °F - 18 °F 18% 30.35 in 25 mi SSE 8.9 mph - -   Partly Cloudy
1:15 PM 50.0 °F - 17.6 °F 28% 30.33 in - South 9.2 mph - N/A   Clear
1:45 PM 50.0 °F - 19.4 °F 30% 30.33 in - South 6.9 mph - N/A   Clear
2:15 PM 50.0 °F - 19.4 °F 30% 30.30 in - South 10.4 mph - N/A   Clear
2:45 PM 51.8 °F - 21.2 °F 30% 30.30 in - SSW 9.2 mph - N/A   Clear
3:15 PM 51.8 °F - 23.0 °F 33% 30.27 in - South 9.2 mph - N/A   Clear
3:45 PM 51.8 °F - 23.0 °F 33% 30.27 in - South 9.2 mph - N/A   Clear
4:15 PM 51.8 °F - 23.0 °F 33% 30.27 in - South 10.4 mph - N/A   Clear
4:45 PM 50.0 °F - 23.0 °F 35% 30.27 in - South 8.1 mph - N/A   Clear
6:00 PM - - - N/A% - - North - - N/A   Unknown
7:00 PM 39 °F - 23 °F 39% 30.27 in - ESE 4.5 mph - -